Terminal Aerodrome Forecast
Issued by NWS Caribou, ME

Home | Current Version | Previous Version | Text Only | Print | Product List | Glossary On
Versions: 1 2 3 4 5 6 7 8 9 10 11 12 13 14 15 16 17 18 19
000
FTUS41 KCAR 260540
TAFCAR
TAF
KCAR 260540Z 2606/2706 14007KT P6SM -RA BKN020 OVC040
      TEMPO 2606/2608 6SM -RA BR SCT020 OVC040
     FM260900 13005KT 6SM -RA BR OVC015
     FM261200 15005KT 3SM -RA BR OVC005
     FM262000 16006KT P6SM VCSH OVC003=

USA.gov is the U.S. government's official web portal to all federal, state and local government web resources and services.